Location: Pinawa
(50.1500°N, 95.8830°W)
Time: 13:44:27
(UTC-05:00)

Daily predictions for brighter satellites

Satellite Brightness Start Highest point End
(mag) Time Altitude Azimuth Time Altitude Azimuth Time Altitude Azimuth
Cosmos 1833 Rocket 3.3 21:43:30 10° SW 21:49:07 65° WNW 21:54:45 10° NNE
Helios 1B rocket 4.4 21:47:58 10° ENE 21:49:54 13° E 21:51:48 10° ESE
Cosmos 304 Rocket 4.1 21:45:29 10° S 21:50:05 47° ESE 21:54:43 10° NE
H-2A R/B 2.2 21:45:27 10° SSE 21:50:17 58° ENE 21:55:15 10° N
Cosmos 1455 Rocket 4.2 21:47:57 10° N 21:51:47 29° ENE 21:55:38 10° SE
ATLAS CENTAUR R/B 2.7 21:49:22 10° NW 21:53:33 39° WSW 21:57:57 10° S
ERS-2 4.4 21:52:54 10° SSW 21:55:57 24° W 21:59:02 10° NW
DNEPR-1 R/B 4.1 21:52:56 10° S 21:56:58 41° ESE 22:01:34 10° NE
Iridium 2 4.5 21:54:46 10° SSE 21:58:15 35° E 22:01:46 10° NNE
Cosmos 1242 Rocket 2.7 21:54:39 10° N 21:58:20 61° ENE 22:01:57 10° SSE
Cosmos 1898 Rocket 3.6 21:54:24 10° NNW 21:59:43 77° ENE 22:05:02 10° SSE
Okean 1 Rocket 3.5 21:55:51 10° NNW 22:00:11 64° W 22:04:29 10° S
Cosmos 2208 Rocket 4.2 21:56:58 10° S 22:01:56 48° ESE 22:06:55 10° NNE
Cosmos 1975 Rocket 3.3 22:01:23 10° SSE 22:05:33 48° E 22:09:43 10° NNE
USA 234 3.3 21:59:35 10° ENE 22:06:10 72° SE 22:12:44 10° SW
Cosmos 1674 Rocket 4.5 22:02:21 10° SSW 22:06:43 54° WNW 22:11:08 10° N
Cosmos 1378 Rocket 3.6 22:02:39 10° S 22:06:59 84° W 22:11:19 10° N
Cosmos 1975 3.1 22:04:42 10° NNW 22:08:46 71° W 22:12:46 10° S
BREEZE M DEB (TANK) 4.0 21:56:25 10° WNW 22:09:22 56° SW 22:13:13 11° SE
NOSS 3-2 (A) 3.6 22:05:05 10° SSW 22:10:49 51° ESE 22:17:14 10° NE
Resurs 01 Rocket 3.7 22:07:19 10° SSW 22:11:01 26° W 22:14:44 10° NW
COSMOS 2487 2.8 22:09:58 10° SSW 22:13:27 69° WNW 22:16:59 10° NNE
ERS-1 Rocket 3.0 22:08:32 10° SSE 22:13:33 77° ENE 22:18:35 10° NNW
BREEZE-M R/B 3.2 22:10:32 10° SW 22:13:37 25° SSE 22:15:52 10° E
NOSS 3-2 (C) 3.9 22:08:46 10° S 22:14:18 41° ESE 22:20:25 10° NE
MetOp-A 4.4 22:10:09 10° S 22:15:30 74° WSW 22:20:54 10° NNW
Cosmos 2233 Rocket 4.0 22:09:29 10° S 22:15:37 81° E 22:21:51 10° NNE
Cosmos 2322 Rocket 2.2 22:12:45 10° NNW 22:18:25 89° ENE 22:23:50 11° SSE
Cosmos 1544 Rocket 3.9 22:14:23 10° N 22:18:43 52° ENE 22:22:46 12° SSE
Cosmos 2082 Rocket 3.5 22:14:02 10° SW 22:19:28 46° NW 22:24:59 10° NNE
Cosmos 2237 Rocket 4.5 22:17:07 10° N 22:20:22 15° NNE 22:23:39 10° ENE
SL-16 R/B 2.3 22:19:13 10° NNW 22:24:55 80° WSW 22:30:19 11° SSE
Cosmos 2150 Rocket 4.2 22:20:14 10° NNW 22:25:40 68° ENE 22:30:25 13° SE
Cosmos 990 Rocket 4.0 22:23:29 10° NNW 22:28:43 86° WSW 22:33:34 12° SSE
SPOT 5 2.7 22:33:17 13° SSE 22:37:11 79° ENE 22:41:45 10° NNW
ARGOS 3.9 22:32:10 10° S 22:37:23 50° W 22:42:40 10° NNW
Timation 2 Rocket 3.9 22:32:14 10° SSW 22:38:07 65° ESE 22:44:10 10° NE
SJ 16-02 2.3 22:34:32 10° N 22:38:42 37° ENE 22:42:00 15° ESE
Cosmos 1536 Rocket 4.3 22:35:36 14° SSE 22:38:50 35° E 22:42:55 10° NNE
Meteor 1-19 Rocket 4.4 22:34:47 10° S 22:40:43 88° ESE 22:46:41 10° NNE
Landsat 7 3.9 22:39:40 15° SSE 22:43:38 70° ENE 22:48:24 10° N
Helios 1A 3.0 22:40:33 13° SSE 22:44:11 82° WSW 22:48:23 10° NNW
Cosmos 2298 Rocket 4.1 22:39:36 10° NNW 22:44:56 80° WSW 22:49:23 15° SSE
CZ-2C R/B 3.9 22:41:02 14° SE 22:45:12 42° ENE 22:50:28 10° N
CENTAUR R/B 3.2 22:43:06 10° S 22:48:28 34° ESE 22:54:32 10° NE
Cosmos 2034 Rocket 4.2 22:49:35 14° SSE 22:54:48 53° E 23:00:46 10° NNE
USA 32 4.3 22:50:21 10° N 22:55:35 70° W 23:00:37 11° S
Cosmos 1513 Rocket 4.5 22:51:45 11° S 22:57:32 67° E 23:03:40 10° NNE
Aureole 2 Rocket 2.0 22:55:10 10° NNW 22:58:18 75° WSW 22:59:50 25° SSE
ATLAS 3B R/B 3.0 22:51:14 10° SW 22:58:21 74° NW 23:05:13 10° NE
Shenzhou-11 Module 3.5 22:56:25 10° SW 22:58:34 20° S 22:58:34 20° S
Cosmos 2084 3.7 22:55:50 10° SSW 22:59:51 41° SE 23:03:42 10° NE
Lacrosse 5 rocket 1.5 22:56:01 10° NW 23:00:25 75° NNE 23:03:34 17° ESE
Cosmos 1464 Rocket 4.0 22:54:44 10° S 23:01:06 78° E 23:07:31 10° NNE
Terra 1.9 22:58:53 19° SSE 23:02:18 71° ENE 23:07:04 10° N
Cosmos 1937 Rocket 4.2 22:58:56 10° NW 23:03:50 45° WSW 23:08:06 13° S
ISS -3.7 23:01:42 10° SW 23:04:51 47° SSE 23:08:01 10° ENE
Cosmos 468 Rocket 4.4 23:03:26 10° SW 23:08:40 65° WNW 23:13:54 10° NNE
Cosmos 2360 Rocket 2.2 23:05:13 10° NNW 23:10:53 82° WSW 23:14:49 21° SSE
Meteor 1-23 Rocket 4.2 23:06:40 14° S 23:11:25 70° E 23:16:59 10° NNE
CARTOSAT-1 3.5 23:08:56 20° SSE 23:11:51 85° WSW 23:16:12 10° NNW
YAOGAN 11 4.2 23:11:55 22° SSE 23:14:44 76° ENE 23:19:16 10° NNW
CZ-4C R/B 3.2 23:10:39 10° NW 23:17:28 64° NE 23:24:17 14° ESE
Cosmos 2219 Rocket 3.0 23:12:14 10° NNW 23:17:35 42° NE 23:21:44 16° ESE
Cosmos 1763 Rocket 3.7 23:16:11 10° SSW 23:21:29 76° WNW 23:26:48 10° NNE
Cosmos 841 Rocket 3.4 23:18:06 10° SSW 23:23:21 83° ESE 23:28:39 10° NNE
Cosmos 2333 Rocket 3.0 23:18:06 10° NNW 23:23:32 43° NE 23:27:45 16° ESE
Okean 2 3.6 23:21:29 26° SSE 23:23:39 56° E 23:27:45 10° NNE
Cosmos 540 Rocket 3.6 23:21:34 20° S 23:25:00 53° ESE 23:30:03 10° NNE
SPOT 1/Viking Rocket 4.4 23:21:22 14° SSW 23:25:38 44° W 23:30:36 10° NNW
Helios 1B rocket 2.6 23:21:33 10° NNE 23:25:42 76° WNW 23:29:07 15° SSW
Cosmos 1606 Rocket 4.4 23:22:16 10° N 23:26:25 37° ENE 23:28:35 23° SE
CZ-2C R/B 3.3 23:21:04 10° NNE 23:26:26 43° E 23:29:28 23° SSE
COSMOS 2428 2.9 23:21:24 10° NNW 23:27:04 64° ENE 23:30:47 22° SE
Cosmos 1455 Rocket 4.5 23:25:46 10° NNW 23:29:38 32° W 23:33:14 11° SSW
H-2A R/B 4.0 23:26:21 10° SW 23:30:08 22° W 23:33:58 10° NW
BREEZE-M DEB 3.6 23:27:40 10° W 23:30:49 79° S 23:31:28 46° ESE
Cosmos 1340 Rocket 3.5 23:27:06 11° SSW 23:30:52 53° WNW 23:34:53 10° N
IGS 5A 4.0 23:29:53 21° S 23:32:28 51° W 23:36:33 10° NNW
Cosmos 1356 Rocket 3.7 23:31:39 28° SSE 23:33:35 52° E 23:37:47 10° NNE
Meteor 2-4 Rocket 4.4 23:29:03 10° SSW 23:34:20 51° WNW 23:39:47 10° N
SL-16 R/B 4.4 23:30:25 10° N 23:34:27 19° NE 23:38:28 10° E
Cosmos 372 Rocket 4.0 23:33:17 10° NNW 23:38:27 77° WSW 23:41:19 27° SSE
Cosmos 1025 Rocket 3.0 23:36:47 28° S 23:38:57 66° E 23:43:19 10° NNE
Cosmos 1356 4.3 23:36:30 16° SW 23:39:02 47° WNW 23:42:26 10° N
Cosmos 1544 3.3 23:36:26 10° N 23:40:08 60° ENE 23:41:28 35° SE
Cosmos 1833 4.1 23:35:04 12° SSW 23:40:26 77° ESE 23:46:09 10° NNE
SAR-Lupe-4 3.6 23:41:26 36° SSE 23:42:45 70° ENE 23:46:21 10° N
Meteor 1-29 3.7 23:41:41 10° N 23:45:06 52° WNW 23:47:22 19° SW
USA 234 3.9 23:42:43 10° ENE 23:49:08 59° NNW 23:55:33 10° W
Cosmos 2322 4.1 23:48:18 10° NW 23:53:53 54° WSW 23:57:01 25° S
